This is the latest recevied weather packets stored in our database for station/object N9VPV. If no packets are shown the sender has not sent any weather packets the latest 10 day(s).
| Time | Temp. | Humidity | Pressure | Rain* | Wind** | Luminosity | Snow |
|---|---|---|---|---|---|---|---|
| 1777483176 | 15° C | 51% | 1016.2 hPa | 0 mm | - | 388 W/m² | - |
| 1777482276 | 14.44° C | 50% | 1016.2 hPa | 0 mm | - | 373 W/m² | - |
| 1777481375 | 14.44° C | 53% | 1016.3 hPa | 0 mm | - | 353 W/m² | - |
| 1777480475 | 14.44° C | 57% | 1016.3 hPa | 0 mm | - | 330 W/m² | - |
| 1777479574 | 13.89° C | 57% | 1016.3 hPa | 0 mm | - | 302 W/m² | - |
| 1777478673 | 13.33° C | 56% | 1016.3 hPa | 0 mm | - | 264 W/m² | - |
| 1777477774 | 13.33° C | 57% | 1016.3 hPa | 0 mm | - | 234 W/m² | - |
| 1777476873 | 12.78° C | 60% | 1016.4 hPa | 0 mm | - | 197 W/m² | - |
| 1777475973 | 12.22° C | 64% | 1016.4 hPa | 0 mm | - | 158 W/m² | - |
| 1777475073 | 11.67° C | 63% | 1016.2 hPa | 0 mm | - | 67 W/m² | - |
| 1777474173 | 11.67° C | 66% | 1016.1 hPa | 0 mm | - | 0 W/m² | - |
| 1777473271 | 11.11° C | 69% | 1015.9 hPa | 0 mm | - | 0 W/m² | - |
| 1777472373 | 10.56° C | 69% | 1015.9 hPa | 0 mm | - | 0 W/m² | - |
| 1777471471 | 10° C | 71% | 1015.8 hPa | 0 mm | - | 0 W/m² | - |
| 1777470563 | 10° C | 71% | 1015.8 hPa | 0 mm | - | 0 W/m² | - |
| 1777469663 | 9.44° C | 73% | 1015.7 hPa | 0 mm | - | 0 W/m² | - |
| 1777468762 | 9.44° C | 73% | 1015.6 hPa | 0 mm | - | 0 W/m² | - |
| 1777467859 | 9.44° C | 73% | 1015.5 hPa | 0 mm | - | 0 W/m² | - |
| 1777466959 | 9.44° C | 74% | 1015.5 hPa | 0 mm | - | 0 W/m² | - |
| 1777466058 | 8.89° C | 75% | 1015.4 hPa | 0 mm | - | 0 W/m² | - |
| 1777465155 | 8.89° C | 77% | 1015.3 hPa | 0 mm | - | 0 W/m² | - |
| 1777464252 | 8.33° C | 77% | 1015.1 hPa | 0 mm | - | 0 W/m² | - |
| 1777463348 | 8.33° C | 76% | 1015 hPa | 0 mm | - | 0 W/m² | - |
| 1777462448 | 8.89° C | 75% | 1015 hPa | 0 mm | - | 0 W/m² | - |
| 1777461549 | 8.89° C | 75% | 1014.9 hPa | 0 mm | - | 0 W/m² | - |
* Rain latest hour (hover to see other rain measurements)
** Current wind speed in m/s (hover to see current wind gust speed)